DECAYED

STARLINK-4444, 53507 (Decayed)

Orbit data source: Space-Track

STARLINK-4444, 53507 was a payload satellite owned by SpaceX/Seattle (US) in LEO that was launched on Fri, 12 Aug 2022 UTC via an FALCON 9 launch vehicle from the Air Force Western Test Range (AFWTR). Payload-class satellites include a variety of spacecraft equipped with specific instruments for various scientific and technological missions. These include communications satellites like Starlink; space stations such as the ISS; scientific satellites like the Hubble; Earth observation satellites from companies like Planet Labs, Umbra, and HawkEye 360; GPS; miniature CubeSats for education and research; and military/defense satellites.

Not visible in the next 10 days
Identifier
53507, 2022-099AU
Orbit
Decayed
Country
Flag of USUS
Related business
Manufacturer
SpaceX/Seattle
Mission
Decayed Commercial Communications
Bus & Motor
STARLINK, Unknown motor
Mass
300 kg wet, ~275 kg dry
Launch date (UTC)
2022-08-12 (4 years ago)
Launch vehicle
FALCON 9
Launch site
Air Force Western Test Range (AFWTR)
Object type
Payload
Rocket body
Debris
Shape & HBR
Box + 1 Pan, 10.1 m
Radar Cross Section
13.562 m², Large (>1 m²)

Expand to show TLE details & history
Last TLE update: 1 year ago

TLE from 1 year ago
0 STARLINK-4444
1 53507U 22099AU  25142.86541059  .14579086  27667-5  18489-3 0  9990
2 53507  97.6405 273.7998 0012908 252.9853 264.2290 16.48922664153150
Epoch: 2025-05-22T20:46Z
TLE epoch observation values (Epoch: 2025-05-22T20:46:11.474Z)
Latitude
22.73765°
Longitude
-95.27266°
Altitude
146.086 km
Speed
7.82 km/s
True Right ascension
06h 28m 00s
True Declination
22° 36' 14"
Sunlit
Object was in daylight at epoch
Visualization orbit readout
Latitude
Unknown
Longitude
Unknown
Altitude
Unknown
Speed
Unknown
Apparent Right ascension
Unknown
Apparent Declination
Unknown
Sunlit
N/A
Visualization observer readout
Local Sidereal Time
06:10:10
Azimuth
Unknown
Elevation
Unknown
Doppler factor
Unknown
Orbital elements
Apogee altitude
147.393 km
Perigee altitude
130.569 km
Semi-major axis
6,517.118 km
Eccentricity
0.00129
Inclination
97.6405°
RAAN
273.7998°
Arg. of periapsis
252.9853°
True anomaly
264.08186°
Mean anomaly
264.229°
Eccentric anomaly
264.15543°
Mean motion
4.12534 °/min
Orbital period
87.27 mins
BSTAR
0.00018489
Loading maneuver chart data...
Computing Atmospheric mass density...
Loading historical data...
Loading historical data...
Loading historical data...
Loading historical data...
Loading historical data...
Loading historical data...
Loading historical data...

Documentation

Showing up to 5 results
|